Location: Lecco
(45.8566°N, 9.3977°E)
Time: 04:58:56
(UTC+02:00)

Transit 4A - Pass Details

Date: 23 August 2020
Orbit: 863 x 982 km, 66.8° (Epoch: 23 September)

Event Time Altitude Azimuth Distance (km) Brightness Sun altitude
Rises 14:53:21 0° 329° (NNW) 3,653 10.8 50.5°
Reaches altitude 10° 14:56:13 10° 340° (NNW) 2,718 10.2 50.2°
Maximum altitude 15:01:51 32° 42° (NE) 1,625 9.2 49.6°
Drops below altitude 10° 15:07:30 10° 104° (ESE) 2,734 10.3 49.0°
Sets 15:10:23 0° 114° (ESE) 3,677 10.9 48.7°
